Location: Aufkirchen
(47.9603°N, 11.3653°E)
Time: 06:39:00
(UTC+01:00)

Transit 2A - Pass Details

Date: 26 November 2020
Orbit: 599 x 960 km, 66.7° (Epoch: 25 January)

Event Time Altitude Azimuth Distance (km) Brightness Sun altitude
Rises 23:56:55 0° 321° (NW) 3,467 - -63.0°
Reaches altitude 10° 00:01:03 10° 348° (NNW) 2,441 - -63.0°
Maximum altitude 00:03:35 13° 15° (NNE) 2,177 - -63.0°
Drops below altitude 10° 00:06:01 10° 42° (NE) 2,326 - -63.0°
Sets 00:09:44 0° 70° (ENE) 3,158 - -63.0°
